{"data":{"norad_id":55061,"intl_designator":"2023-001BE","name":"SKYKRAFT-1C","alt_names":[],"object_type":"PAYLOAD","status":"ACTIVE","operator":null,"country":"AUS","launch_date":"2023-01-03","launch_site_code":"AFETR","launch_vehicle":null,"mission":null,"orbit_class":"UNKNOWN","rcs_meters":null,"size_class":null,"mass_kg":null,"dimensions":null,"purposes":[],"wikipedia_slug":null,"has_3d_model":false,"image_url":null,"decayed_at":null,"tle_current":{"epoch":"2026-09-21T17:01:58.035936Z","epoch_age_seconds":61085,"freshness":"FRESH","line1":"1 55061U 23001BE  26264.70969949  .00001863  00000+0  76292-4 0  9993","line2":"2 55061  97.3094 316.2024 0010958 157.3573 202.8151 15.25477137206192","mean_motion":15.25477137,"eccentricity":0.0010958,"inclination_deg":97.3094,"raan_deg":316.2024,"arg_perigee_deg":157.3573,"mean_anomaly_deg":202.8151,"bstar":7.6292e-5,"rev_number":20619,"period_min":94.396694979769,"perigee_km":481.82766099302,"apogee_km":496.87845220106,"semimajor_km":6867.490056597,"source":"CELESTRAK","updated_at":"2026-09-22T09:00:25.269812Z"}}}